Hanford, CA

3:52 AM PDT on May 28, 2018 (GMT -0700)
Hanford Municipal

Weather History for KHJO - August, 2013

Change the Weather History Date:

Monday, August 19, 2013

  Actual Average Record
Temperature  
Mean Temperature 87 °F 78 °F  
Max Temperature 106 °F 95 °F 106 °F (2013)
Min Temperature 68 °F 61 °F 55 °F (1999)
Degree Days  
Heating Degree Days 0    
Month to date heating degree days 0  
Since 1 June heating degree days 0  
Since 1 July heating degree days 0  
Cooling Degree Days 22    
Month to date cooling degree days 272  
Year to date cooling degree days 1529  
Since 1 June cooling degree days 1277  
Growing Degree Days 37 (Base 50)    
Moisture  
Dew Point 59 °F    
Average Humidity 51    
Maximum Humidity 84    
Minimum Humidity 17    
Precipitation  
Precipitation 0.00 in 0.00 in 0.00 in (2018)
Month to date precipitation 0.00 0.00  
Year to date precipitation 1.60 6.78  
Since 1 July precipitation T  
Snow  
Snow 0.00 in - - ()
Month to date snowfall 0.0  
Since 1 June snowfall 0.0  
Since 1 July snowfall 0.0  
Snow Depth 0.00 in    
Sea Level Pressure  
Sea Level Pressure 29.80 in    
Wind  
Wind Speed 5 mph (NW)    
Max Wind Speed 14 mph    
Max Gust Speed 21 mph    
Visibility 8 miles    
Events Thunderstorm    
T = Trace of Precipitation, MM = Missing Value Source: NWS Daily Summary

Daily Weather History Graph

Daily Weather History Graph

Search for Another Location

Airport or City:

Astronomy

Aug. 19, 2013 Rise Set
Actual Time 6:19 AM PDT 7:43 PM PDT
Civil Twilight 5:52 AM PDT 8:10 PM PDT
Nautical Twilight 5:20 AM PDT 8:42 PM PDT
Astronomical Twilight 4:46 AM PDT 9:16 PM PDT
Moon 6:38 PM PDT (8/19) 4:45 AM PDT (8/19)
Length of Visible Light 14h 17m
Length of Day
13h 23m
Waxing Gibbous, 98% of the Moon is Illuminated
Aug 19
Waxing Gibbous
Aug 20
Full
Aug 28
Last Quarter
Sep 5
New
Sep 12
First Quarter

Hourly Weather History & Observations

Time (PDT) Temp. Heat Index Dew Point Humidity Pressure Visibility Wind Dir Wind Speed Gust Speed Precip Events Conditions
12:53 AM 73.9 °F - 63.0 °F 68% 29.82 in 9.0 mi Calm Calm - N/A   Clear
1:53 AM 73.0 °F - 63.0 °F 71% 29.81 in 9.0 mi WSW 3.5 mph - N/A   Clear
2:53 AM 70.0 °F - 63.0 °F 78% 29.80 in 9.0 mi North - - N/A   Clear
3:53 AM 68.0 °F - 61.0 °F 78% 29.80 in 8.0 mi SSE 3.5 mph - N/A   Clear
4:53 AM 70.0 °F - 64.0 °F 81% 29.81 in 8.0 mi Calm Calm - N/A   Clear
5:18 AM 69.8 °F - 62.6 °F 78% 29.81 in 8.0 mi NE 4.6 mph - N/A Thunderstorm Clear
5:53 AM 71.1 °F - 63.0 °F 75% 29.82 in 9.0 mi Calm Calm - N/A   Clear
6:53 AM 71.1 °F - 63.0 °F 75% 29.83 in 7.0 mi Calm Calm - N/A   Clear
7:53 AM 73.9 °F - 64.0 °F 71% 29.86 in 7.0 mi NE 5.8 mph - N/A   Clear
8:53 AM 84.0 °F 84.9 °F 63.0 °F 49% 29.86 in 9.0 mi Calm Calm - N/A   Clear
9:53 AM 98.1 °F 97.7 °F 59.0 °F 27% 29.85 in - West 3.5 mph - N/A   Clear
10:12 AM 93.2 °F 92.6 °F 59.0 °F 32% 29.85 in 0.2 mi North - - N/A   Haze
10:22 AM 93.2 °F 93.3 °F 60.8 °F 34% 29.85 in 1.0 mi WNW 4.6 mph - N/A   Haze
10:24 AM 93.2 °F 93.3 °F 60.8 °F 34% 29.85 in 5.0 mi NW 4.6 mph - N/A   Haze
10:53 AM 96.1 °F 95.2 °F 57.9 °F 28% 29.84 in 10.0 mi Variable 6.9 mph - N/A   Clear
11:53 AM 99.0 °F 98.1 °F 57.0 °F 25% 29.83 in 10.0 mi Variable 6.9 mph - N/A   Clear
12:53 PM 100.9 °F - 52.0 °F 19% 29.81 in 10.0 mi WNW 10.4 mph - N/A   Clear
1:53 PM 102.9 °F 101.4 °F 54.0 °F 20% 29.79 in 10.0 mi NNW 11.5 mph - N/A   Clear
2:53 PM 105.1 °F 103.8 °F 55.0 °F 19% 29.75 in 10.0 mi WNW 10.4 mph - N/A   Clear
3:53 PM 105.1 °F 103.3 °F 54.0 °F 18% 29.74 in 10.0 mi NNW 11.5 mph - N/A   Clear
4:53 PM 106.0 °F - 52.0 °F 17% 29.73 in 10.0 mi Variable 3.5 mph - N/A   Clear
5:53 PM 104.0 °F 102.9 °F 55.0 °F 20% 29.73 in 10.0 mi NNE 4.6 mph - N/A   Clear
6:37 PM 105.8 °F 104.3 °F 53.6 °F 18% 29.72 in 10.0 mi NNW 4.6 mph - N/A Thunderstorm Unknown
6:53 PM 104.0 °F - 52.0 °F 18% 29.73 in 10.0 mi NW 5.8 mph - N/A   Unknown
7:53 PM - - - N/A% 29.75 in - North - - N/A   Unknown
8:53 PM - - - N/A% 29.78 in - North - - N/A   Unknown
9:53 PM - - - N/A% 29.79 in - North - - N/A   Unknown
10:53 PM 87.1 °F 86.7 °F 60.1 °F 40% 29.77 in 10.0 mi WNW 4.6 mph - N/A   Unknown
11:53 PM 82.0 °F 82.7 °F 61.0 °F 49% 29.78 in 10.0 mi Calm Calm - N/A   Clear